Weather History for KDHN - March, 2013

Change the Weather History Date:

Sunday, March 10, 2013

  Actual Average Record
Temperature  
Mean Temperature 65 °F 58 °F  
Max Temperature 77 °F 70 °F 86 °F (2015)
Min Temperature 52 °F 46 °F 33 °F (1950)
Degree Days  
Heating Degree Days 0 8  
Month to date heating degree days 150 86  
Since 1 July heating degree days 1357 1645  
Cooling Degree Days 0 1  
Month to date cooling degree days 0 10  
Year to date cooling degree days 38 20  
Growing Degree Days 14 (Base 50)    
Moisture  
Dew Point 46 °F    
Average Humidity 55    
Maximum Humidity 80    
Minimum Humidity 36    
Precipitation  
Precipitation 0.00 in 0.16 in 0.48 in (1953)
Month to date precipitation 0.07 1.60  
Year to date precipitation 7.40 11.00  
Sea Level Pressure  
Sea Level Pressure 30.12 in    
Wind  
Wind Speed 10 mph (SE)    
Max Wind Speed 18 mph    
Max Gust Speed 25 mph    
Visibility 10 miles    
Events      
T = Trace of Precipitation, MM = Missing Value Source: NWS Daily Summary

Daily Weather History Graph

Daily Weather History Graph

Search for Another Location

Airport or City:

Trip Planner

Search our weather history database for the weather conditions in past years. The results will help you decide how hot, cold, wet, or windy it might be!

Date:

Astronomy

Mar. 10, 2013 Rise Set
Actual Time 6:57 AM CDT 6:46 PM CDT
Civil Twilight 6:33 AM CDT 7:10 PM CDT
Nautical Twilight 6:05 AM CDT 7:39 PM CDT
Astronomical Twilight 5:37 AM CDT 8:07 PM CDT
Moon 5:54 AM CDT (3/10) 5:54 PM CDT (3/10)
Length of Visible Light 12h 37m
Length of Day
11h 49m
Waning Crescent, 2% of the Moon is Illuminated
Mar 10
Waning Crescent
Mar 11
New
Mar 19
First Quarter
Mar 27
Full
Apr 2
Last Quarter

Hourly Weather History & Observations

Time (CDT) Temp. Dew Point Humidity Pressure Visibility Wind Dir Wind Speed Gust Speed Precip Events Conditions
12:53 AM 54.0 °F 37.9 °F 55% 30.17 in 10.0 mi ESE 4.6 mph - N/A   Clear
1:53 AM 55.9 °F 39.9 °F 55% 30.14 in 10.0 mi ESE 10.4 mph - N/A   Clear
3:53 AM 55.0 °F 43.0 °F 64% 30.15 in 10.0 mi ESE 10.4 mph - N/A   Clear
4:53 AM 54.0 °F 43.0 °F 66% 30.14 in 10.0 mi ESE 11.5 mph 19.6 mph N/A   Clear
5:53 AM 54.0 °F 44.1 °F 69% 30.16 in 10.0 mi ESE 11.5 mph - N/A   Clear
7:53 AM 53.1 °F 45.0 °F 74% 30.17 in 10.0 mi ESE 11.5 mph - N/A   Clear
8:53 AM 57.9 °F 46.9 °F 67% 30.16 in 10.0 mi SE 13.8 mph - N/A   Clear
9:53 AM 63.0 °F 48.0 °F 58% 30.16 in 10.0 mi SE 16.1 mph 23.0 mph N/A   Clear
10:53 AM 68.0 °F 48.0 °F 49% 30.17 in 10.0 mi SSE 18.4 mph - N/A   Clear
11:53 AM 70.0 °F 48.9 °F 47% 30.16 in 10.0 mi SSE 11.5 mph - N/A   Clear
12:53 PM 72.0 °F 48.0 °F 43% 30.14 in 10.0 mi SE 15.0 mph 20.7 mph N/A   Clear
1:53 PM 75.0 °F 48.0 °F 38% 30.11 in 10.0 mi SE 17.3 mph 25.3 mph N/A   Clear
2:53 PM 75.9 °F 48.0 °F 37% 30.10 in 10.0 mi South 11.5 mph - N/A   Clear
3:53 PM 75.9 °F 46.9 °F 36% 30.09 in 10.0 mi South 12.7 mph 19.6 mph N/A   Clear
4:53 PM 75.0 °F 46.9 °F 37% 30.08 in 10.0 mi South 11.5 mph 21.9 mph N/A   Clear
5:53 PM 72.0 °F 46.9 °F 41% 30.08 in 10.0 mi SE 9.2 mph - N/A   Clear
6:53 PM 68.0 °F 46.0 °F 45% 30.08 in 10.0 mi SSE 10.4 mph - N/A   Clear
7:53 PM 64.9 °F 43.0 °F 45% 30.09 in 10.0 mi South 9.2 mph - N/A   Clear
8:53 PM 60.1 °F 45.0 °F 57% 30.09 in 10.0 mi South 9.2 mph - N/A   Clear
9:53 PM 59.0 °F 46.9 °F 64% 30.09 in 10.0 mi South 6.9 mph - N/A   Clear
10:53 PM 55.9 °F 46.9 °F 72% 30.09 in 10.0 mi SSE 5.8 mph - N/A   Clear
11:53 PM 55.9 °F 48.9 °F 77% 30.07 in 10.0 mi SSE 5.8 mph - N/A   Clear
12:53 AM 55.0 °F 48.9 °F 80% 30.05 in 10.0 mi SE 8.1 mph - N/A   Clear